Dewpoint
8 12 15 16 17 17 15 9 6 11 11 9 11 10 11 11 12 15 15 14 8 9 13 9 6 6 9 10 10 11 11 11 11 10 5 7 13 12 13 12 11 11 12 13 11 7 12 14 14
9 14 15 17 18 17 13 8 10 12 10 10 10 10 11 13 13 15 14 13 6 9 10 9 9 10 8 11 10 10 11 11 11 12 8 13 10 11 10 5 8 9 4 4 8 8 7 12 14
13 14 16 17 17 16 11 8 11 12 10 10 10 11 12 13 13 13 14 14 13 11 9 5 5 7 10 10 10 10 10 11 11 12 10 10 10 9 11 10 9 7 8 5 5 9 7 12 12
15 15 14 18 17 16 8 7 7 10 9 9 10 10 12 13 14 14 14 15 14 13 9 5 7 8 8 10 7 9 9 12 9 10 10 10 10 9 10 12 10 9 9 6 5 6 9 12 13
12 17 17 18 16 15 6 11 12 11 10 10 10 11 14 12 13 13 13 15 13 13 6 10 12 9 9 8 8 9 10 12 11 11 11 11 12 11 9 8 8 8 6 5 6 5 8 13 13
15 16 18 18 15 15 12 14 13 12 10 10 10 12 14 13 13 13 12 14 11 8 7 11 12 9 8 10 10 10 11 12 11 11 11 11 12 11 8 8 6 5 4 4 4 4 6 14 13
15 17 17 15 17 16 13 11 12 11 10 10 10 12 13 14 14 14 14 15 13 9 10 11 11 11 11 11 10 10 11 11 11 11 11 12 10 11 9 7 9 9 7 4 2 2 4 10 13
15 16 16 16 17 16 15 12 12 10 10 10 10 11 13 13 13 12 14 14 14 12 12 12 11 10 11 10 9 11 11 11 10 9 10 10 11 9 9 10 10 7 4 4 2 5 11 11 13
14 17 18 16 16 16 15 14 11 10 10 10 10 12 12 11 13 14 14 14 14 13 15 15 13 11 10 9 10 10 11 10 11 10 10 11 11 9 11 12 9 6 11 12 7 10 10 10 11
15 16 16 16 13 16 16 14 12 12 12 10 10 12 11 12 13 13 13 13 13 12 15 14 14 11 9 10 11 10 11 11 11 11 10 13 13 10 11 11 10 11 13 13 14 13 13 12 11
14 16 15 16 12 14 16 15 11 13 13 10 10 11 11 12 11 11 13 13 13 14 15 14 14 14 12 11 11 11 12 12 11 10 12 12 12 10 11 14 14 12 13 14 14 13 12 11 10
15 14 14 15 15 15 16 16 14 13 11 10 10 10 9 9 12 14 14 14 14 15 15 13 14 14 14 15 13 14 11 11 11 10 12 12 12 12 13 14 14 12 11 13 13 11 11 12 11
14 15 15 14 15 14 13 16 15 13 11 10 10 10 9 8 10 12 12 13 13 14 15 13 12 14 14 16 15 14 12 10 12 12 12 13 14 13 13 13 12 12 13 12 12 12 12 12 13
14 16 15 15 15 15 14 16 14 12 12 11 10 9 9 9 11 12 13 12 13 14 14 13 12 14 14 14 13 14 13 12 11 13 13 13 13 14 14 13 12 12 11 12 12 13 12 10 12
15 16 15 15 15 15 14 16 13 11 11 11 10 9 9 8 11 12 13 12 13 14 13 13 13 14 13 13 13 14 14 14 13 13 13 13 13 12 13 14 13 11 11 11 12 13 13 12 10
16 15 17 16 15 15 15 15 13 10 11 11 10 9 8 9 10 10 11 13 13 14 13 13 12 13 13 13 14 14 14 15 14 13 14 14 13 14 14 13 12 12 14 14 14 14 12 12 12
15 17 17 16 16 15 15 14 13 12 10 10 10 9 8 9 10 11 11 13 13 13 12 15 13 13 13 14 14 14 14 14 14 13 12 11 13 14 15 14 12 11 14 14 14 13 12 12 12
16 17 16 17 16 16 16 16 13 13 13 9 9 8 9 9 10 10 12 12 13 12 13 13 12 13 12 14 14 14 14 14 14 14 14 10 14 15 15 14 11 12 12 13 12 12 12 12 12
11 15 17 16 16 16 16 15 14 13 14 14 11 8 10 10 10 10 13 13 13 14 14 13 13 13 14 14 15 14 14 14 14 15 14 12 14 14 14 12 11 12 12 12 11 11 13 12 13
12 15 16 16 15 15 15 15 14 14 14 15 14 10 10 10 10 13 13 13 12 14 14 13 13 11 13 14 14 14 14 15 14 15 14 13 13 14 13 12 9 13 12 11 11 13 15 13 12
13 14 16 16 16 15 15 15 15 14 14 13 14 13 10 10 10 13 13 13 11 14 13 13 13 12 14 14 14 15 15 15 15 15 14 15 14 14 16 14 11 11 10 13 13 14 15 12 13
15 15 15 16 16 17 15 17 16 14 14 13 14 14 11 11 10 13 13 13 11 12 12 12 14 13 15 15 15 14 14 14 15 15 14 13 12 13 14 14 13 14 10 11 14 15 15 15 12
14 14 14 14 15 16 16 17 16 15 15 14 14 14 13 11 9 11 13 12 12 12 12 13 13 12 15 15 15 14 14 15 15 15 14 14 13 14 15 13 13 7 13 13 12 15 13 14 15
12 14 14 15 16 17 15 16 17 16 14 13 13 13 13 13 11 12 12 13 13 13 14 12 12 11 15 14 15 14 14 14 15 15 15 15 13 14 15 16 12 12 14 12 16 14 12 13 14
11 12 15 16 18 18 15 16 16 14 12 11 11 12 13 13 12 11 12 13 13 14 14 14 12 13 13 14 15 15 14 15 15 16 14 13 14 15 13 15 14 13 13 15 13 15 13 12 12
12 11 14 15 17 17 15 17 15 11 11 10 11 11 13 13 12 12 11 12 13 15 15 14 13 11 12 13 13 13 14 12 15 15 14 16 16 14 16 15 14 14 13 15 13 13 13 13 13
4 5 2 14 14 15 16 15 14 11 12 10 11 12 13 13 12 12 12 11 14 13 14 15 14 13 10 12 14 13 13 15 15 15 13 15 15 15 16 16 15 15 14 15 13 13 12 14 14
-2 -1 7 12 15 16 16 15 15 14 12 12 10 11 12 12 11 12 13 13 13 13 13 15 14 13 11 8 12 13 14 14 14 15 15 13 15 16 15 14 14 14 15 16 15 14 15 15 14
-3 -2 -2 5 10 14 14 16 14 13 13 14 12 10 11 13 12 11 12 12 13 11 14 15 15 14 11 8 11 13 12 13 14 14 15 14 14 14 12 14 16 16 16 15 15 15 14 16 14
-4 -3 -3 -0 1 8 12 11 11 12 13 11 12 12 11 12 12 11 12 14 12 12 12 14 15 14 12 12 14 12 13 12 13 14 14 14 14 13 11 15 17 16 14 13 13 14 14 16 15
Wind_Speed
6 3 7 5 2 2 6 9 13 20 22 25 19 19 8 10 7 8 28 21 21 23 21 19 18 17 16 16 17 17 17 18 19 20 22 24 23 23 23 23 22 22 21 20 21 23 24 27 24
5 2 2 3 1 2 2 10 19 20 25 33 35 33 30 20 32 34 28 17 22 22 20 18 17 16 16 16 16 16 17 18 19 19 20 21 22 22 22 21 20 19 18 18 20 23 23 24 23
5 5 0 2 2 2 5 14 19 22 26 31 21 22 12 30 30 22 26 20 21 20 16 16 15 15 16 16 15 17 17 18 18 19 20 20 20 20 20 20 20 19 18 18 20 22 25 24 23
7 6 8 3 4 5 14 13 20 22 30 33 33 14 28 31 27 38 33 29 22 17 14 16 16 16 16 15 16 17 18 19 19 20 19 21 20 19 17 16 16 17 17 17 19 21 24 25 24
3 5 4 4 4 5 11 19 23 17 21 29 37 23 27 32 34 32 27 23 16 15 15 16 15 16 16 16 16 17 18 19 18 19 18 19 19 18 17 17 16 17 17 17 18 20 24 25 25
3 2 5 6 3 5 10 30 16 21 29 26 32 32 29 31 26 24 21 12 12 17 16 16 16 15 16 16 17 18 18 18 18 18 17 16 17 17 17 17 17 17 18 18 18 20 22 24 25
3 2 2 1 5 6 3 26 11 25 27 22 31 23 27 30 28 25 25 21 14 16 14 15 16 15 15 15 16 18 18 19 18 18 17 17 16 16 16 18 18 19 19 20 20 22 21 21 22
5 2 1 2 3 1 6 12 20 26 25 35 35 16 17 32 27 25 29 24 17 14 17 14 13 13 13 16 17 18 17 17 16 16 16 17 16 16 18 18 19 20 22 22 23 26 28 26 23
5 2 3 1 4 3 6 5 26 18 34 25 13 31 30 30 30 31 31 22 15 16 15 15 11 12 13 16 17 17 16 18 17 16 15 15 16 17 18 17 18 19 20 21 23 26 25 23 18
4 2 1 16 9 3 6 5 18 15 12 19 28 37 35 31 38 31 23 20 16 16 17 15 12 18 14 17 18 19 18 17 16 17 18 15 13 15 17 18 18 18 15 15 16 15 13 14 15
7 3 4 4 19 7 3 4 8 28 10 28 33 33 35 30 31 24 24 21 20 21 20 17 17 16 13 18 17 20 20 17 16 14 19 17 14 12 15 16 13 10 11 12 12 10 10 11 12
3 7 6 12 12 13 3 2 13 14 25 33 33 30 32 24 27 31 30 22 23 21 22 16 14 14 11 14 18 18 18 13 19 21 18 17 17 15 11 7 7 11 15 12 14 13 18 14 5
6 8 7 11 7 14 17 13 9 6 38 32 32 29 24 19 22 33 25 22 23 24 22 15 14 12 9 14 14 16 18 26 20 15 20 15 12 10 7 7 6 12 10 13 16 14 15 11 7
9 9 13 9 8 16 14 9 18 12 29 25 28 28 23 20 23 30 27 23 25 24 21 17 17 12 17 14 12 16 16 17 20 18 17 17 14 14 9 7 9 13 9 10 12 14 12 8 10
19 13 9 5 5 8 21 12 4 15 29 29 26 24 26 20 34 31 27 24 25 20 16 17 21 15 19 14 12 19 16 12 15 15 15 13 13 13 13 4 8 7 9 7 5 2 4 7 11
6 7 5 4 3 4 4 5 4 22 29 27 28 25 25 26 25 23 17 24 23 23 14 17 24 17 19 20 18 16 16 11 7 11 11 12 15 11 7 10 9 6 4 2 3 2 6 7 5
3 3 10 1 9 5 5 2 7 9 25 25 27 24 25 25 24 21 21 28 26 18 17 22 14 21 23 19 19 16 13 13 12 9 6 15 17 13 13 10 5 7 1 3 5 7 10 10 4
14 6 6 6 4 3 2 8 15 13 10 21 27 25 25 26 25 24 27 25 20 19 19 20 15 18 18 20 21 16 17 14 10 9 6 17 15 9 16 7 7 9 5 5 6 6 6 7 9
4 11 14 9 6 2 6 2 13 17 15 13 8 27 31 28 24 25 30 25 18 24 24 21 17 15 19 22 17 15 14 13 11 10 8 7 15 10 7 8 10 8 7 10 6 5 6 9 4
10 15 7 7 13 1 4 5 9 18 7 7 8 15 32 28 28 30 31 23 22 25 23 16 18 19 16 18 17 17 13 10 7 8 6 9 14 7 6 7 7 17 9 13 9 5 7 2 3
3 2 9 9 11 4 5 4 6 5 8 13 7 9 32 35 30 35 29 24 27 25 23 20 18 16 17 15 15 15 14 12 13 8 7 9 8 11 3 5 7 11 10 7 7 3 3 5 4
5 12 9 20 8 1 5 2 4 6 8 7 15 19 26 30 32 35 31 31 26 27 25 21 18 21 19 16 17 17 15 12 9 6 6 7 7 7 3 5 2 5 8 7 5 2 1 1 2
7 13 11 14 9 4 7 2 4 4 9 13 19 19 8 33 33 28 34 31 26 25 25 19 19 23 18 15 14 15 18 12 11 9 8 7 7 7 5 4 4 6 10 8 8 1 3 2 3
24 17 5 5 1 1 8 6 4 12 27 23 30 21 10 21 33 27 26 31 29 24 23 19 18 18 20 16 13 15 16 17 13 11 9 6 6 10 10 6 5 10 10 11 5 3 5 3 8
15 6 1 1 2 1 9 8 7 23 21 29 26 27 19 24 30 34 27 32 29 28 25 22 20 23 24 21 17 16 16 15 14 14 11 12 10 12 10 11 7 6 9 8 8 6 5 3 0
14 9 6 3 1 2 3 2 5 10 26 30 31 30 26 30 30 32 33 28 27 32 30 25 22 21 22 21 20 16 15 14 13 11 10 11 12 10 13 9 6 6 9 8 7 6 8 6 4
4 6 8 7 2 3 1 2 11 14 13 27 31 30 35 33 35 26 31 29 31 36 27 28 24 20 18 20 18 17 17 14 14 13 12 12 12 16 16 13 7 8 8 5 8 5 9 7 4
3 5 2 3 5 3 5 7 5 9 7 15 27 30 30 21 30 33 34 30 37 33 32 28 28 22 18 20 18 17 14 16 14 11 12 18 14 11 13 11 7 7 11 10 9 7 8 8 7
3 4 4 4 5 4 4 4 12 18 16 10 17 31 35 29 31 36 39 32 38 32 33 31 33 24 20 20 17 15 15 17 17 12 12 16 14 13 12 13 9 10 8 10 10 10 10 8 8
7 5 6 3 8 2 4 4 12 17 17 23 18 28 35 38 39 37 30 39 37 38 32 30 36 24 18 21 17 14 12 12 14 13 11 13 11 9 15 13 12 12 9 11 11 9 8 8 6
Wind_Direction
154 136 15 348 340 105 313 92 83 83 78 104 111 125 110 179 97 130 151 152 139 131 126 123 123 122 119 116 116 113 110 108 106 104 104 105 106 105 103 102 102 104 103 100 98 98 103 98 100
189 47 301 329 82 169 198 77 87 90 90 96 91 92 83 83 109 127 129 143 139 130 127 124 122 121 123 120 120 116 111 109 108 106 107 108 107 107 106 102 104 103 101 101 99 102 109 103 99
130 85 325 8 299 246 115 99 94 97 95 103 95 85 87 114 123 131 136 127 133 121 123 123 124 124 122 124 125 119 114 113 113 112 111 109 108 107 106 102 99 101 101 100 103 107 110 109 103
69 103 21 301 261 283 111 117 117 102 101 103 109 85 109 128 117 128 133 142 137 131 125 124 124 125 124 124 125 121 120 120 117 117 115 114 110 107 107 105 104 102 100 98 103 108 116 114 101
214 77 89 298 268 307 116 94 59 94 100 96 103 107 97 119 126 140 134 146 143 135 130 121 116 117 122 126 126 120 123 123 123 118 116 115 112 106 106 105 103 102 100 100 103 108 119 116 111
194 190 154 229 237 314 76 72 133 100 107 105 109 110 116 120 128 137 146 143 135 131 128 121 120 119 124 127 125 123 122 121 121 122 119 114 108 106 109 107 102 98 96 97 99 102 117 120 114
158 35 264 75 349 8 42 134 186 125 119 120 125 119 132 134 136 130 130 141 118 109 115 117 117 122 125 126 127 127 125 122 129 123 120 116 113 109 109 105 101 97 95 96 95 97 104 123 118
223 108 133 125 213 244 35 134 115 134 126 128 133 138 139 137 139 131 140 141 124 100 99 102 111 115 118 125 127 124 126 120 122 129 128 120 113 112 110 105 98 96 97 95 98 101 100 109 114
175 17 149 107 203 181 332 90 134 126 131 144 144 137 138 143 144 138 137 138 135 131 120 117 105 99 119 123 124 127 123 121 118 125 128 123 117 121 112 101 99 105 105 99 102 100 101 104 101
159 122 350 183 217 51 344 344 131 115 89 137 138 145 138 147 145 144 156 143 127 108 127 137 111 104 122 123 123 124 128 126 130 133 129 125 122 126 112 103 100 108 102 100 103 109 106 108 105
181 176 121 151 166 188 155 317 258 112 169 151 135 149 141 154 157 161 155 143 131 128 134 133 124 120 119 114 123 136 123 132 141 155 142 134 127 117 117 107 98 97 105 93 77 89 107 118 120
188 123 120 131 170 165 143 131 256 231 159 141 140 145 143 147 154 148 151 144 137 132 139 133 132 128 154 119 132 118 116 130 160 145 148 131 122 114 114 110 126 90 118 116 106 102 84 106 108
80 85 99 123 134 132 153 262 216 50 144 141 141 144 141 156 166 158 148 141 139 136 144 128 126 134 148 164 139 116 102 122 149 151 134 143 134 124 138 177 119 136 99 98 126 110 93 76 83
138 127 120 92 131 95 97 313 271 133 134 146 146 145 158 172 150 149 144 139 146 148 149 139 147 146 135 143 134 130 127 115 131 117 126 126 129 147 160 129 77 87 105 107 116 125 130 111 138
138 127 109 67 59 94 106 264 107 125 156 145 146 157 169 178 138 144 144 141 150 148 145 140 157 132 142 137 146 133 143 135 113 110 120 126 127 150 147 171 104 63 82 124 127 90 215 115 122
149 121 132 15 46 30 344 202 153 178 149 150 156 176 173 146 145 147 142 150 155 147 151 153 168 156 142 141 138 135 135 139 111 127 153 164 146 146 124 139 136 149 157 351 292 52 166 180 103
13 252 109 28 16 27 349 147 342 344 153 157 167 183 159 147 146 151 152 158 152 139 137 141 139 139 159 149 128 139 144 138 142 135 113 169 149 150 163 138 144 190 77 51 42 79 89 192 143
231 152 141 132 147 9 29 335 320 354 347 170 179 168 157 154 156 154 164 163 160 150 154 151 146 153 163 142 146 146 147 151 153 147 90 154 160 148 129 154 185 175 116 134 87 109 79 57 165
163 120 123 118 142 133 166 279 316 313 327 322 237 166 153 155 161 160 161 164 162 146 159 164 157 164 155 148 145 149 165 164 162 158 137 127 166 151 141 166 156 150 128 133 96 130 77 126 62
329 126 86 98 133 97 158 265 284 283 293 312 296 183 158 161 170 159 162 166 159 162 169 175 174 161 158 150 158 161 162 153 155 151 160 144 166 158 168 156 149 171 137 129 136 149 57 55 331
240 322 169 147 132 70 118 291 306 231 292 293 278 243 161 162 164 162 163 164 161 163 171 177 179 175 170 176 168 171 169 176 162 161 171 168 158 182 187 191 139 154 143 119 134 79 75 76 66
94 54 186 130 126 120 197 285 278 230 270 286 267 289 174 171 167 163 172 172 173 174 180 190 182 187 179 175 176 184 168 171 159 160 145 161 152 178 211 249 167 148 148 153 145 113 286 82 170
133 120 163 146 111 134 193 204 240 263 256 253 248 255 181 177 174 182 177 184 183 176 183 188 184 190 191 185 183 174 183 170 183 182 181 190 182 167 226 230 207 179 167 190 165 308 248 96 119
117 130 112 58 51 110 195 207 197 198 207 218 229 229 219 205 183 203 182 184 183 179 180 176 180 186 192 187 191 183 182 186 184 179 190 210 187 185 194 215 225 180 202 189 182 212 251 21 160
107 140 312 226 191 354 338 194 255 203 216 217 212 202 213 209 196 189 176 173 181 186 187 187 189 191 199 197 198 201 189 195 189 184 189 181 182 191 184 198 204 211 188 204 204 214 194 237 107
160 168 159 265 171 122 320 251 259 292 210 201 214 212 199 200 210 201 193 177 189 188 190 192 196 193 201 200 207 207 199 182 186 192 196 214 210 209 205 219 223 217 204 197 216 216 183 191 229
209 220 215 99 71 96 124 344 300 20 175 198 207 215 208 202 195 196 204 193 191 189 193 201 202 198 194 204 207 206 193 188 184 189 205 206 211 218 202 208 212 192 189 223 233 224 206 202 249
182 272 56 37 142 201 133 146 264 304 202 186 200 210 209 198 202 188 185 192 199 202 196 199 200 203 196 201 200 208 203 202 207 210 204 209 212 199 203 199 167 170 182 207 239 227 206 211 246
284 293 302 146 138 144 162 178 206 222 190 191 215 214 204 199 196 197 197 203 210 208 195 195 198 198 192 200 196 210 214 207 209 206 204 209 206 212 237 205 185 203 196 203 215 236 221 245 237
216 226 210 131 289 155 133 239 185 199 202 180 225 216 209 199 205 198 183 196 205 195 198 202 195 195 191 193 191 203 205 204 214 222 222 225 219 221 206 210 190 224 216 211 220 233 224 235 228
Height
1517 1518 1517 1516 1523 1518 1511 1494 1485 1495 1500 1501 1507 1509 1514 1513 1520 1545 1541 1545 1548 1551 1553 1555 1556 1558 1558 1559 1560 1561 1562 1562 1563 1564 1563 1563 1565 1565 1566 1567 1568 1568 1569 1571 1571 1572 1572 1574 1574
1517 1518 1518 1516 1525 1525 1512 1491 1500 1501 1504 1505 1510 1513 1516 1524 1524 1535 1543 1546 1549 1551 1554 1556 1557 1558 1560 1561 1562 1563 1563 1564 1566 1566 1566 1567 1567 1568 1568 1569 1569 1570 1571 1572 1573 1574 1575 1576 1576
1517 1520 1520 1518 1520 1519 1511 1495 1500 1504 1506 1507 1513 1515 1520 1529 1536 1537 1543 1547 1548 1553 1556 1557 1558 1560 1561 1562 1563 1564 1565 1566 1568 1569 1569 1570 1571 1571 1571 1571 1572 1573 1573 1573 1575 1576 1577 1579 1579
1516 1522 1517 1523 1520 1504 1496 1497 1499 1505 1510 1512 1513 1523 1528 1533 1536 1540 1545 1546 1549 1552 1555 1557 1559 1560 1561 1562 1563 1565 1566 1568 1569 1570 1571 1572 1572 1573 1575 1576 1576 1576 1576 1576 1576 1579 1580 1581 1581
1517 1509 1530 1528 1515 1503 1492 1498 1506 1508 1511 1516 1517 1529 1533 1537 1541 1545 1546 1550 1551 1553 1556 1557 1559 1560 1562 1563 1565 1567 1568 1569 1571 1572 1574 1574 1574 1575 1577 1578 1579 1579 1578 1578 1579 1580 1582 1583 1585
1518 1519 1528 1532 1515 1506 1503 1504 1511 1511 1513 1521 1525 1530 1538 1542 1544 1547 1549 1551 1553 1555 1557 1558 1560 1561 1563 1564 1567 1569 1571 1573 1574 1575 1577 1579 1579 1579 1579 1579 1580 1581 1581 1581 1581 1582 1584 1586 1587
1516 1519 1519 1518 1516 1511 1509 1505 1516 1510 1515 1523 1528 1531 1540 1544 1546 1548 1551 1552 1556 1558 1560 1561 1561 1563 1564 1567 1568 1570 1572 1574 1575 1577 1579 1580 1581 1582 1582 1582 1582 1583 1583 1583 1584 1584 1586 1588 1590
1513 1516 1515 1514 1518 1521 1513 1512 1512 1512 1519 1524 1529 1534 1541 1544 1547 1550 1554 1556 1558 1558 1561 1564 1563 1563 1566 1568 1571 1573 1575 1577 1579 1580 1581 1583 1583 1585 1584 1586 1585 1585 1585 1585 1586 1586 1588 1591 1593
1511 1520 1522 1517 1516 1516 1514 1515 1513 1518 1520 1525 1527 1533 1538 1543 1546 1551 1554 1557 1558 1559 1562 1565 1565 1565 1567 1569 1572 1574 1577 1579 1580 1583 1585 1584 1586 1587 1588 1589 1589 1589 1588 1589 1590 1590 1592 1593 1595
1510 1518 1515 1515 1515 1516 1514 1516 1517 1522 1527 1529 1530 1536 1539 1542 1546 1550 1553 1555 1558 1560 1563 1566 1568 1568 1569 1571 1573 1575 1578 1579 1580 1583 1585 1588 1589 1590 1591 1593 1593 1593 1593 1593 1594 1594 1595 1595 1595
1505 1512 1507 1510 1512 1519 1518 1519 1515 1522 1529 1525 1528 1535 1540 1544 1546 1548 1552 1554 1557 1561 1565 1568 1569 1569 1571 1574 1576 1576 1580 1582 1582 1583 1586 1590 1590 1595 1596 1597 1597 1597 1597 1596 1598 1594 1594 1596 1595
1508 1505 1508 1512 1516 1521 1522 1525 1524 1522 1523 1525 1528 1536 1540 1544 1546 1550 1552 1555 1558 1560 1566 1568 1570 1571 1573 1578 1578 1582 1581 1580 1582 1585 1589 1591 1593 1597 1599 1598 1597 1598 1598 1598 1597 1595 1596 1596 1598
1504 1506 1510 1512 1517 1522 1521 1521 1521 1519 1523 1527 1529 1537 1541 1544 1546 1549 1551 1556 1559 1560 1566 1569 1571 1573 1573 1576 1580 1582 1584 1584 1587 1588 1590 1593 1597 1596 1599 1597 1598 1599 1599 1600 1600 1598 1598 1598 1601
1502 1508 1512 1515 1520 1526 1526 1527 1527 1524 1524 1529 1532 1537 1542 1543 1546 1549 1552 1555 1559 1561 1566 1570 1573 1573 1574 1578 1581 1584 1584 1588 1591 1591 1593 1595 1599 1599 1600 1600 1600 1600 1600 1601 1602 1603 1603 1603 1603
1503 1511 1517 1519 1523 1528 1529 1531 1521 1520 1526 1529 1534 1538 1542 1544 1546 1548 1552 1555 1557 1563 1567 1570 1573 1576 1577 1580 1583 1587 1588 1590 1591 1593 1595 1598 1601 1601 1603 1603 1600 1601 1602 1602 1603 1604 1604 1604 1604
1508 1513 1524 1525 1525 1529 1530 1532 1522 1521 1524 1529 1534 1537 1541 1544 1547 1551 1555 1555 1560 1564 1567 1570 1573 1576 1580 1582 1585 1586 1589 1590 1592 1595 1598 1599 1601 1602 1602 1602 1602 1602 1602 1600 1600 1603 1604 1604 1604
1514 1526 1524 1526 1527 1528 1529 1526 1521 1523 1522 1528 1533 1536 1539 1544 1547 1551 1556 1557 1562 1565 1568 1571 1574 1576 1580 1584 1586 1588 1591 1593 1595 1597 1598 1599 1601 1601 1600 1600 1600 1601 1602 1601 1601 1603 1604 1605 1606
1527 1523 1524 1529 1531 1533 1535 1533 1524 1526 1527 1527 1531 1534 1538 1543 1547 1551 1554 1558 1563 1565 1569 1572 1575 1577 1580 1584 1587 1589 1591 1594 1596 1597 1599 1600 1600 1599 1599 1599 1599 1601 1601 1602 1603 1605 1604 1604 1607
1496 1505 1519 1527 1532 1536 1537 1537 1528 1526 1529 1529 1529 1531 1536 1542 1547 1550 1553 1558 1563 1565 1569 1572 1575 1578 1581 1584 1587 1588 1591 1594 1596 1598 1599 1599 1599 1599 1598 1598 1600 1602 1602 1602 1602 1604 1605 1605 1607
1501 1514 1524 1530 1528 1535 1538 1539 1538 1527 1531 1532 1531 1530 1533 1539 1546 1547 1551 1557 1562 1564 1569 1573 1576 1579 1582 1584 1586 1588 1591 1593 1595 1597 1598 1598 1599 1599 1598 1599 1602 1602 1602 1602 1603 1605 1606 1606 1607
1512 1507 1519 1520 1527 1536 1538 1540 1533 1529 1530 1531 1531 1533 1530 1537 1542 1547 1551 1555 1561 1564 1569 1573 1576 1579 1581 1583 1585 1587 1589 1592 1594 1596 1598 1598 1599 1599 1600 1601 1603 1604 1603 1603 1603 1606 1608 1608 1607
1509 1506 1515 1520 1524 1542 1538 1549 1536 1531 1532 1533 1535 1535 1530 1534 1541 1545 1549 1553 1558 1562 1565 1571 1575 1578 1580 1581 1584 1586 1588 1590 1594 1596 1597 1598 1598 1599 1601 1602 1604 1603 1604 1605 1606 1608 1607 1608 1609
1505 1512 1517 1518 1523 1537 1542 1547 1534 1532 1534 1530 1532 1533 1531 1534 1537 1544 1548 1551 1556 1561 1565 1568 1573 1576 1579 1581 1584 1586 1588 1591 1592 1595 1596 1597 1599 1599 1600 1601 1603 1604 1604 1607 1608 1608 1609 1612 1613
1498 1509 1523 1525 1525 1542 1527 1535 1537 1533 1517 1522 1524 1528 1528 1536 1537 1544 1548 1550 1555 1559 1565 1569 1571 1574 1577 1580 1582 1585 1588 1591 1592 1594 1595 1596 1597 1598 1599 1600 1601 1604 1607 1609 1609 1610 1610 1612 1612
1492 1509 1537 1541 1536 1540 1526 1533 1520 1513 1511 1511 1511 1523 1528 1532 1538 1542 1545 1548 1554 1557 1562 1567 1571 1572 1576 1579 1581 1584 1588 1590 1591 1593 1593 1593 1595 1597 1599 1600 1602 1603 1606 1607 1609 1610 1612 1613 1615
1495 1500 1529 1535 1535 1534 1530 1533 1518 1505 1504 1509 1516 1522 1529 1532 1536 1539 1542 1547 1553 1556 1559 1565 1569 1571 1573 1577 1579 1582 1585 1587 1589 1591 1590 1592 1592 1595 1597 1599 1601 1601 1604 1607 1608 1610 1612 1613 1614
1481 1500 1479 1521 1525 1531 1531 1530 1518 1502 1502 1511 1516 1522 1523 1526 1530 1535 1540 1544 1549 1553 1555 1561 1568 1570 1572 1575 1577 1579 1582 1584 1586 1588 1588 1590 1591 1592 1593 1596 1598 1600 1601 1604 1607 1609 1611 1612 1612
1470 1469 1495 1503 1536 1543 1533 1541 1537 1515 1508 1508 1512 1515 1520 1520 1525 1532 1538 1542 1547 1551 1553 1557 1565 1567 1570 1572 1576 1579 1581 1582 1583 1586 1587 1588 1590 1591 1593 1593 1594 1597 1600 1602 1604 1606 1607 1609 1611
1478 1484 1482 1487 1498 1525 1530 1527 1501 1499 1493 1504 1506 1510 1511 1517 1522 1526 1531 1538 1544 1546 1549 1553 1560 1566 1568 1569 1573 1577 1580 1581 1583 1584 1586 1588 1590 1591 1592 1593 1593 1595 1597 1599 1600 1603 1605 1607 1608
1464 1473 1479 1507 1508 1495 1509 1509 1480 1485 1485 1480 1489 1497 1506 1509 1515 1522 1525 1532 1537 1540 1545 1550 1555 1561 1565 1567 1571 1574 1579 1580 1582 1584 1585 1586 1588 1589 1591 1592 1591 1593 1594 1595 1598 1600 1603 1605 1607